| time (UTC) | temp F | wind direction | speed knots | gust knots | rain 1hr in | rain 24hr in | rain mn in | humidity % | barometer mb |
| 20260507161301 | 80 | 213 | 0.0 | 0.0 | 0.00 | 0.00 | 0.00 | 24 | 1012.0 |
| 20260507160800 | 80 | 187 | 0.0 | 0.9 | 0.00 | 0.00 | 0.00 | 24 | 1012.1 |
| 20260507160301 | 79 | 207 | 0.0 | 6.1 | 0.00 | 0.00 | 0.00 | 24 | 1012.1 |
| 20260507155801 | 79 | 202 | 0.0 | 6.1 | 0.00 | 0.00 | 0.00 | 25 | 1012.0 |
| 20260507155301 | 79 | 210 | 0.0 | 0.9 | 0.00 | 0.00 | 0.00 | 25 | 1012.1 |
| 20260507155246 | 79 | 223 | 0.0 | 0.9 | 0.00 | 0.00 | 0.00 | 25 | 1012.1 |
| 20260507154259 | 79 | 214 | 0.0 | 0.0 | 0.00 | 0.00 | 0.00 | 25 | 1012.1 |
| 20260507153753 | 78 | 202 | 0.0 | 0.0 | 0.00 | 0.00 | 0.00 | 24 | 1012.1 |
| 20260507153510 | 78 | 186 | 0.0 | 0.0 | 0.00 | 0.00 | 0.00 | 26 | 1012.1 |
| 20260507153003 | 77 | 214 | 0.0 | 0.0 | 0.00 | 0.00 | 0.00 | 26 | 1012.1 |
| 20260507152244 | 76 | 208 | 0.0 | 0.0 | 0.00 | 0.00 | 0.00 | 26 | 1012.1 |
| 20260507151744 | 76 | 190 | 0.0 | 0.0 | 0.00 | 0.00 | 0.00 | 26 | 1012.2 |
| 20260507151245 | 76 | 184 | 0.0 | 0.0 | 0.00 | 0.00 | 0.00 | 26 | 1012.3 |
| 20260507150743 | 76 | 184 | 0.0 | 0.0 | 0.00 | 0.00 | 0.00 | 27 | 1012.3 |
| 20260507150241 | 75 | 184 | 0.0 | 0.0 | 0.00 | 0.00 | 0.00 | 27 | 1012.3 |
| 20260507145738 | 75 | 182 | 0.0 | 0.0 | 0.00 | 0.00 | 0.00 | 28 | 1012.3 |
| 20260507145456 | 74 | 182 | 0.0 | 0.0 | 0.00 | 0.00 | 0.00 | 28 | 1012.3 |
| 20260507144735 | 73 | 182 | 0.0 | 0.0 | 0.00 | 0.00 | 0.00 | 29 | 1012.3 |
| 20260507144232 | 73 | 183 | 0.0 | 0.0 | 0.00 | 0.00 | 0.00 | 30 | 1012.3 |
| 20260507143949 | 72 | 183 | 0.0 | 0.0 | 0.00 | 0.00 | 0.00 | 30 | 1012.3 |
| 20260507143230 | 72 | 182 | 0.0 | 0.0 | 0.00 | 0.00 | 0.00 | 30 | 1012.3 |
| 20260507142729 | 71 | 182 | 0.0 | 0.0 | 0.00 | 0.00 | 0.00 | 30 | 1012.3 |
| 20260507142230 | 71 | 182 | 0.0 | 0.0 | 0.00 | 0.00 | 0.00 | 30 | 1012.1 |
| 20260507141730 | 70 | 182 | 0.0 | 1.7 | 0.00 | 0.00 | 0.00 | 30 | 1012.1 |
| 20260507141458 | 70 | 182 | 0.0 | 1.7 | 0.00 | 0.00 | 0.00 | 31 | 1012.1 |
| 20260507140730 | 69 | 182 | 0.0 | 0.0 | 0.00 | 0.00 | 0.00 | 32 | 1012.1 |
| 20260507140230 | 69 | 182 | 0.0 | 0.0 | 0.00 | 0.00 | 0.00 | 33 | 1012.1 |
| 20260507135730 | 68 | 182 | 0.0 | 0.0 | 0.00 | 0.00 | 0.00 | 33 | 1012.0 |
| 20260507135451 | 68 | 182 | 0.0 | 0.0 | 0.00 | 0.00 | 0.00 | 33 | 1012.1 |
| 20260507134722 | 67 | 162 | 0.0 | 0.0 | 0.00 | 0.00 | 0.00 | 32 | 1012.0 |
| 20260507134442 | 67 | 132 | 0.0 | 0.0 | 0.00 | 0.00 | 0.00 | 31 | 1011.9 |
| 20260507133710 | 66 | 153 | 0.0 | 0.0 | 0.00 | 0.00 | 0.00 | 32 | 1011.9 |
| 20260507133204 | 66 | 5 | 0.0 | 0.0 | 0.00 | 0.00 | 0.00 | 31 | 1011.9 |
| 20260507132702 | 66 | 5 | 0.0 | 0.0 | 0.00 | 0.00 | 0.00 | 30 | 1011.9 |
| 20260507132202 | 66 | 5 | 0.0 | 0.0 | 0.00 | 0.00 | 0.00 | 30 | 1011.8 |
| 20260507131702 | 67 | 0 | 0.0 | 0.0 | 0.00 | 0.00 | 0.00 | 30 | 1011.8 |
| 20260507131202 | 67 | 0 | 0.0 | 0.0 | 0.00 | 0.00 | 0.00 | 30 | 1011.7 |
| 20260507130702 | 67 | 0 | 0.0 | 0.0 | 0.00 | 0.00 | 0.00 | 30 | 1011.7 |
| 20260507130421 | 68 | 16 | 0.0 | 0.0 | 0.00 | 0.00 | 0.00 | 29 | 1011.7 |
| 20260507125701 | 68 | 16 | 0.0 | 0.0 | 0.00 | 0.00 | 0.00 | 28 | 1011.7 |
| 20260507125202 | 69 | 16 | 0.0 | 0.0 | 0.00 | 0.00 | 0.00 | 28 | 1011.7 |
| 20260507124702 | 69 | 16 | 0.0 | 0.0 | 0.00 | 0.00 | 0.00 | 28 | 1011.6 |
| 20260507124427 | 69 | 16 | 0.0 | 0.0 | 0.00 | 0.00 | 0.00 | 27 | 1011.6 |
| 20260507123924 | 69 | 16 | 0.0 | 0.0 | 0.00 | 0.00 | 0.00 | 27 | 1011.6 |
| 20260507123650 | 69 | 16 | 0.0 | 0.0 | 0.00 | 0.00 | 0.00 | 28 | 1011.6 |
| 20260507122700 | 69 | 16 | 0.0 | 0.0 | 0.00 | 0.00 | 0.00 | 28 | 1011.5 |
| 20260507122201 | 69 | 16 | 0.0 | 0.0 | 0.00 | 0.00 | 0.00 | 28 | 1011.5 |
| 20260507121702 | 68 | 21 | 0.0 | 0.0 | 0.00 | 0.00 | 0.00 | 28 | 1011.5 |
| 20260507121201 | 68 | 12 | 0.0 | 0.0 | 0.00 | 0.00 | 0.00 | 29 | 1011.4 |
| 20260507120921 | 68 | 5 | 0.0 | 0.0 | 0.00 | 0.00 | 0.00 | 29 | 1011.5 |
| 20260507120158 | 68 | 0 | 0.0 | 0.0 | 0.00 | 0.00 | 0.00 | 29 | 1011.5 |
| 20260507115651 | 68 | 9 | 0.0 | 0.0 | 0.00 | 0.00 | 0.00 | 29 | 1011.5 |
| 20260507115145 | 68 | 347 | 0.0 | 0.0 | 0.00 | 0.00 | 0.00 | 29 | 1011.5 |
| 20260507114646 | 68 | 340 | 0.0 | 0.0 | 0.00 | 0.00 | 0.00 | 29 | 1011.6 |
| 20260507114145 | 68 | 338 | 0.0 | 0.0 | 0.00 | 0.00 | 0.00 | 29 | 1011.6 |
| 20260507113644 | 68 | 0 | 0.0 | 0.0 | 0.00 | 0.00 | 0.00 | 29 | 1011.6 |
| 20260507113143 | 67 | 344 | 0.0 | 0.0 | 0.00 | 0.00 | 0.00 | 29 | 1011.6 |
| 20260507112907 | 67 | 345 | 0.0 | 0.0 | 0.00 | 0.00 | 0.00 | 29 | 1011.6 |
| 20260507112629 | 67 | 355 | 0.0 | 0.0 | 0.00 | 0.00 | 0.00 | 29 | 1011.7 |
| 20260507111640 | 67 | 5 | 0.0 | 0.0 | 0.00 | 0.00 | 0.00 | 30 | 1011.7 |
| 20260507111139 | 67 | 348 | 0.0 | 0.0 | 0.00 | 0.00 | 0.00 | 30 | 1011.7 |
| 20260507110900 | 68 | 10 | 0.0 | 0.9 | 0.00 | 0.00 | 0.00 | 30 | 1011.7 |
| 20260507110358 | 68 | 0 | 0.0 | 0.9 | 0.00 | 0.00 | 0.00 | 30 | 1011.7 |
| 20260507105638 | 67 | 0 | 0.0 | 0.0 | 0.00 | 0.00 | 0.00 | 30 | 1011.8 |
| 20260507105135 | 67 | 355 | 0.0 | 0.0 | 0.00 | 0.00 | 0.00 | 30 | 1011.8 |
| 20260507104633 | 67 | 355 | 0.0 | 0.0 | 0.00 | 0.00 | 0.00 | 30 | 1011.9 |
| 20260507104135 | 67 | 355 | 0.0 | 0.0 | 0.00 | 0.00 | 0.00 | 30 | 1011.9 |
| 20260507103634 | 67 | 355 | 0.0 | 0.0 | 0.00 | 0.00 | 0.00 | 30 | 1011.9 |
| 20260507103133 | 67 | 0 | 0.0 | 0.0 | 0.00 | 0.00 | 0.00 | 30 | 1012.0 |
| 20260507102637 | 67 | 0 | 0.0 | 0.0 | 0.00 | 0.00 | 0.00 | 31 | 1012.0 |
| 20260507102131 | 67 | 0 | 0.0 | 0.0 | 0.00 | 0.00 | 0.00 | 31 | 1012.0 |
| 20260507101630 | 67 | 0 | 0.0 | 0.0 | 0.00 | 0.00 | 0.00 | 30 | 1012.1 |
| 20260507101129 | 67 | 0 | 0.0 | 0.0 | 0.00 | 0.00 | 0.00 | 30 | 1012.1 |
| 20260507100858 | 68 | 0 | 0.0 | 0.0 | 0.00 | 0.00 | 0.00 | 29 | 1012.2 |
| 20260507100130 | 68 | 0 | 0.0 | 0.0 | 0.00 | 0.00 | 0.00 | 29 | 1012.1 |
| 20260507095631 | 68 | 0 | 0.0 | 0.0 | 0.00 | 0.00 | 0.00 | 29 | 1012.2 |
| 20260507095129 | 69 | 0 | 0.0 | 0.0 | 0.00 | 0.00 | 0.00 | 28 | 1012.1 |
| 20260507094630 | 69 | 0 | 0.0 | 0.0 | 0.00 | 0.00 | 0.00 | 28 | 1012.1 |
| 20260507094130 | 69 | 0 | 0.0 | 0.0 | 0.00 | 0.00 | 0.00 | 28 | 1012.1 |
| 20260507093630 | 69 | 0 | 0.0 | 0.0 | 0.00 | 0.00 | 0.00 | 27 | 1012.2 |
| 20260507093129 | 70 | 346 | 0.0 | 0.0 | 0.00 | 0.00 | 0.00 | 27 | 1012.2 |
| 20260507092630 | 72 | 347 | 0.0 | 0.0 | 0.00 | 0.00 | 0.00 | 26 | 1012.2 |
| 20260507092355 | 72 | 348 | 0.0 | 0.0 | 0.00 | 0.00 | 0.00 | 25 | 1012.2 |
| 20260507091851 | 73 | 348 | 0.0 | 0.0 | 0.00 | 0.00 | 0.00 | 25 | 1012.2 |
| 20260507091129 | 73 | 348 | 0.0 | 0.0 | 0.00 | 0.00 | 0.00 | 24 | 1012.1 |
| 20260507090630 | 73 | 348 | 0.0 | 0.0 | 0.00 | 0.00 | 0.00 | 24 | 1012.1 |
| 20260507090129 | 73 | 348 | 0.0 | 0.0 | 0.00 | 0.00 | 0.00 | 24 | 1012.1 |
| 20260507085628 | 73 | 348 | 0.0 | 0.0 | 0.00 | 0.00 | 0.00 | 24 | 1012.2 |
| 20260507085129 | 73 | 300 | 0.0 | 0.0 | 0.00 | 0.00 | 0.00 | 24 | 1012.3 |
| 20260507084629 | 73 | 300 | 0.0 | 0.0 | 0.00 | 0.00 | 0.00 | 24 | 1012.3 |
| 20260507084129 | 73 | 300 | 0.0 | 0.0 | 0.00 | 0.00 | 0.00 | 24 | 1012.3 |
| 20260507083630 | 73 | 288 | 0.0 | 0.0 | 0.00 | 0.00 | 0.00 | 24 | 1012.3 |
| 20260507083129 | 73 | 288 | 0.0 | 0.0 | 0.00 | 0.00 | 0.00 | 24 | 1012.4 |
| 20260507082630 | 73 | 288 | 0.0 | 0.0 | 0.00 | 0.00 | 0.00 | 24 | 1012.5 |
| 20260507082130 | 73 | 288 | 0.0 | 0.0 | 0.00 | 0.00 | 0.00 | 24 | 1012.5 |
| 20260507081629 | 73 | 288 | 0.0 | 0.0 | 0.00 | 0.00 | 0.00 | 24 | 1012.5 |
| 20260507081129 | 73 | 288 | 0.0 | 0.0 | 0.00 | 0.00 | 0.00 | 24 | 1012.5 |
| 20260507080630 | 73 | 288 | 0.0 | 0.0 | 0.00 | 0.00 | 0.00 | 24 | 1012.5 |
| 20260507080130 | 73 | 238 | 0.0 | 0.0 | 0.00 | 0.00 | 0.00 | 24 | 1012.6 |
| 20260507075629 | 73 | 238 | 0.0 | 0.0 | 0.00 | 0.00 | 0.00 | 24 | 1012.6 |
| 20260507075131 | 73 | 238 | 0.0 | 0.0 | 0.00 | 0.00 | 0.00 | 23 | 1012.6 |
| 20260507074629 | 73 | 238 | 0.0 | 0.0 | 0.00 | 0.00 | 0.00 | 23 | 1012.6 |
| 20260507074127 | 74 | 238 | 0.0 | 0.0 | 0.00 | 0.00 | 0.00 | 23 | 1012.6 |
| 20260507073621 | 74 | 238 | 0.0 | 0.0 | 0.00 | 0.00 | 0.00 | 23 | 1012.6 |
| 20260507073115 | 74 | 238 | 0.0 | 0.0 | 0.00 | 0.00 | 0.00 | 23 | 1012.6 |
| 20260507072615 | 74 | 238 | 0.0 | 0.0 | 0.00 | 0.00 | 0.00 | 23 | 1012.5 |
| 20260507072113 | 74 | 238 | 0.0 | 0.0 | 0.00 | 0.00 | 0.00 | 23 | 1012.5 |
| 20260507071613 | 74 | 238 | 0.0 | 0.0 | 0.00 | 0.00 | 0.00 | 23 | 1012.5 |
| 20260507071333 | 74 | 237 | 0.0 | 0.0 | 0.00 | 0.00 | 0.00 | 23 | 1012.5 |
| 20260507070611 | 74 | 238 | 0.0 | 0.0 | 0.00 | 0.00 | 0.00 | 23 | 1012.5 |
| 20260507070337 | 74 | 237 | 0.0 | 0.0 | 0.00 | 0.00 | 0.00 | 23 | 1012.5 |
| 20260507065611 | 74 | 237 | 0.0 | 0.0 | 0.00 | 0.00 | 0.00 | 23 | 1012.5 |
| 20260507065111 | 74 | 238 | 0.0 | 0.0 | 0.00 | 0.00 | 0.00 | 23 | 1012.5 |
| 20260507064608 | 74 | 237 | 0.0 | 0.0 | 0.00 | 0.00 | 0.00 | 23 | 1012.5 |
| 20260507064109 | 75 | 232 | 0.0 | 0.0 | 0.00 | 0.00 | 0.00 | 23 | 1012.5 |
| 20260507063608 | 75 | 232 | 0.0 | 0.0 | 0.00 | 0.00 | 0.00 | 24 | 1012.5 |
| 20260507063106 | 75 | 231 | 0.0 | 0.0 | 0.00 | 0.00 | 0.00 | 24 | 1012.6 |
| 20260507062604 | 75 | 232 | 0.0 | 0.0 | 0.00 | 0.00 | 0.00 | 24 | 1012.5 |
| 20260507062103 | 75 | 232 | 0.0 | 0.0 | 0.00 | 0.00 | 0.00 | 24 | 1012.5 |
| 20260507061602 | 75 | 232 | 0.0 | 0.0 | 0.00 | 0.00 | 0.00 | 23 | 1012.5 |
| 20260507061321 | 75 | 232 | 0.0 | 0.0 | 0.00 | 0.00 | 0.00 | 23 | 1012.5 |
| 20260507060601 | 75 | 231 | 0.0 | 0.0 | 0.00 | 0.00 | 0.00 | 23 | 1012.5 |
| 20260507060101 | 75 | 232 | 0.0 | 0.0 | 0.00 | 0.00 | 0.00 | 23 | 1012.5 |
| 20260507055601 | 75 | 232 | 0.0 | 0.0 | 0.00 | 0.00 | 0.00 | 23 | 1012.5 |
| 20260507055101 | 76 | 232 | 0.0 | 0.0 | 0.00 | 0.00 | 0.00 | 23 | 1012.4 |
| 20260507054601 | 76 | 231 | 0.0 | 0.0 | 0.00 | 0.00 | 0.00 | 23 | 1012.5 |
| 20260507054101 | 76 | 232 | 0.0 | 0.0 | 0.00 | 0.00 | 0.00 | 23 | 1012.5 |
| 20260507053601 | 76 | 232 | 0.0 | 0.0 | 0.00 | 0.00 | 0.00 | 23 | 1012.5 |
| 20260507053101 | 76 | 232 | 0.0 | 0.0 | 0.00 | 0.00 | 0.00 | 23 | 1012.5 |
| 20260507052601 | 76 | 232 | 0.0 | 0.0 | 0.00 | 0.00 | 0.00 | 23 | 1012.5 |
| 20260507052101 | 76 | 232 | 0.0 | 0.0 | 0.00 | 0.00 | 0.00 | 23 | 1012.5 |
| 20260507051601 | 76 | 232 | 0.0 | 0.0 | 0.00 | 0.00 | 0.00 | 23 | 1012.5 |
| 20260507051323 | 76 | 232 | 0.0 | 0.0 | 0.00 | 0.00 | 0.00 | 23 | 1012.5 |
| 20260507050602 | 76 | 232 | 0.0 | 0.0 | 0.00 | 0.00 | 0.00 | 23 | 1012.4 |
| 20260507045601 | 76 | 232 | 0.0 | 0.0 | 0.00 | 0.00 | 0.00 | 23 | 1012.4 |
| 20260507045101 | 76 | 232 | 0.0 | 0.0 | 0.00 | 0.00 | 0.00 | 23 | 1012.4 |
| 20260507044601 | 76 | 232 | 0.0 | 0.0 | 0.00 | 0.00 | 0.00 | 23 | 1012.4 |
| 20260507044324 | 76 | 232 | 0.0 | 0.0 | 0.00 | 0.00 | 0.00 | 23 | 1012.3 |
| 20260507043602 | 76 | 232 | 0.0 | 0.0 | 0.00 | 0.00 | 0.00 | 22 | 1012.2 |
| 20260507043550 | 76 | 232 | 0.0 | 0.0 | 0.00 | 0.00 | 0.00 | 22 | 1012.3 |
| 20260507042822 | 77 | 232 | 0.0 | 0.0 | 0.00 | 0.00 | 0.00 | 22 | 1012.2 |
| 20260507042054 | 77 | 232 | 0.0 | 0.0 | 0.00 | 0.00 | 0.00 | 22 | 1012.1 |
| 20260507041552 | 77 | 232 | 0.0 | 0.0 | 0.00 | 0.00 | 0.00 | 22 | 1012.0 |
| 20260507041049 | 77 | 232 | 0.0 | 0.0 | 0.00 | 0.00 | 0.00 | 22 | 1012.0 |
| 20260507040548 | 77 | 232 | 0.0 | 0.0 | 0.00 | 0.00 | 0.00 | 22 | 1011.9 |
| 20260507040046 | 77 | 232 | 0.0 | 0.0 | 0.00 | 0.00 | 0.00 | 22 | 1011.8 |
| 20260507035544 | 77 | 232 | 0.0 | 0.0 | 0.00 | 0.00 | 0.00 | 22 | 1011.8 |
| 20260507035042 | 77 | 232 | 0.0 | 0.0 | 0.00 | 0.00 | 0.00 | 22 | 1011.7 |
| 20260507034539 | 77 | 232 | 0.0 | 0.0 | 0.00 | 0.00 | 0.00 | 22 | 1011.7 |
| 20260507034038 | 77 | 232 | 0.0 | 0.0 | 0.00 | 0.00 | 0.00 | 22 | 1011.6 |
| 20260507033538 | 77 | 232 | 0.0 | 0.0 | 0.00 | 0.00 | 0.00 | 23 | 1011.7 |
| 20260507033301 | 77 | 232 | 0.0 | 0.0 | 0.00 | 0.00 | 0.00 | 23 | 1011.6 |
| 20260507032535 | 78 | 232 | 0.0 | 0.0 | 0.00 | 0.00 | 0.00 | 23 | 1011.4 |
| 20260507032036 | 78 | 232 | 0.0 | 0.0 | 0.00 | 0.00 | 0.00 | 22 | 1011.4 |
| 20260507031536 | 78 | 232 | 0.0 | 0.0 | 0.00 | 0.00 | 0.00 | 22 | 1011.3 |
| 20260507031033 | 78 | 232 | 0.0 | 0.0 | 0.00 | 0.00 | 0.00 | 22 | 1011.3 |
| 20260507030757 | 78 | 232 | 0.0 | 0.0 | 0.00 | 0.00 | 0.00 | 22 | 1011.2 |
| 20260507030034 | 79 | 232 | 0.0 | 0.0 | 0.00 | 0.00 | 0.00 | 22 | 1011.1 |
| 20260507025533 | 79 | 232 | 0.0 | 0.0 | 0.00 | 0.00 | 0.00 | 22 | 1011.0 |
| 20260507025034 | 79 | 232 | 0.0 | 0.0 | 0.00 | 0.00 | 0.00 | 22 | 1010.9 |
| 20260507024532 | 80 | 232 | 0.0 | 0.0 | 0.00 | 0.00 | 0.00 | 22 | 1010.8 |
| 20260507024031 | 80 | 232 | 0.0 | 0.0 | 0.00 | 0.00 | 0.00 | 21 | 1010.8 |
| 20260507023750 | 80 | 230 | 0.0 | 0.0 | 0.00 | 0.00 | 0.00 | 21 | 1010.8 |
| 20260507023031 | 80 | 229 | 0.0 | 0.0 | 0.00 | 0.00 | 0.00 | 21 | 1010.8 |
| 20260507022531 | 80 | 229 | 0.0 | 0.0 | 0.00 | 0.00 | 0.00 | 21 | 1010.7 |
| 20260507022251 | 80 | 217 | 0.0 | 0.0 | 0.00 | 0.00 | 0.00 | 21 | 1010.7 |
| 20260507021532 | 81 | 221 | 0.0 | 0.0 | 0.00 | 0.00 | 0.00 | 21 | 1010.7 |
| 20260507021029 | 81 | 221 | 0.0 | 0.0 | 0.00 | 0.00 | 0.00 | 21 | 1010.7 |
| 20260507020530 | 81 | 238 | 0.0 | 0.0 | 0.00 | 0.00 | 0.00 | 20 | 1010.7 |
| 20260507020029 | 82 | 211 | 0.0 | 0.9 | 0.00 | 0.00 | 0.00 | 20 | 1010.6 |
| 20260507015530 | 82 | 200 | 0.0 | 0.9 | 0.00 | 0.00 | 0.00 | 20 | 1010.6 |
| 20260507015029 | 82 | 232 | 0.0 | 0.0 | 0.00 | 0.00 | 0.00 | 20 | 1010.4 |
| 20260507014529 | 82 | 221 | 0.0 | 0.0 | 0.00 | 0.00 | 0.00 | 20 | 1010.6 |
| 20260507014030 | 82 | 224 | 0.0 | 0.0 | 0.00 | 0.00 | 0.00 | 20 | 1010.4 |
| 20260507013748 | 83 | 227 | 0.0 | 0.0 | 0.00 | 0.00 | 0.00 | 20 | 1010.3 |
| 20260507013030 | 83 | 227 | 0.0 | 0.0 | 0.00 | 0.00 | 0.00 | 20 | 1010.3 |
| 20260507012529 | 83 | 214 | 0.0 | 0.9 | 0.00 | 0.00 | 0.00 | 19 | 1010.4 |
| 20260507012031 | 83 | 207 | 0.0 | 0.9 | 0.00 | 0.00 | 0.00 | 19 | 1010.3 |
| 20260507011529 | 83 | 231 | 0.0 | 0.0 | 0.00 | 0.00 | 0.00 | 19 | 1010.3 |
| 20260507011031 | 83 | 221 | 0.0 | 0.0 | 0.00 | 0.00 | 0.00 | 19 | 1010.3 |
| 20260507010529 | 83 | 209 | 0.0 | 0.0 | 0.00 | 0.00 | 0.00 | 19 | 1010.3 |
| 20260507010029 | 84 | 227 | 0.0 | 0.0 | 0.00 | 0.00 | 0.00 | 19 | 1010.3 |
| 20260507005530 | 84 | 220 | 0.0 | 2.6 | 0.00 | 0.00 | 0.00 | 19 | 1010.4 |
| 20260507005029 | 84 | 236 | 0.0 | 2.6 | 0.00 | 0.00 | 0.00 | 19 | 1010.3 |
| 20260507004529 | 84 | 257 | 0.0 | 0.0 | 0.00 | 0.00 | 0.00 | 19 | 1010.3 |
| 20260507004030 | 84 | 229 | 0.0 | 0.0 | 0.00 | 0.00 | 0.00 | 19 | 1010.3 |
| 20260507003530 | 84 | 228 | 0.0 | 0.9 | 0.00 | 0.00 | 0.00 | 19 | 1010.3 |
| 20260507003029 | 84 | 240 | 0.0 | 0.9 | 0.00 | 0.00 | 0.00 | 19 | 1010.3 |
| 20260507002528 | 84 | 228 | 0.0 | 0.0 | 0.00 | 0.00 | 0.00 | 19 | 1010.3 |
| 20260507002519 | 84 | 115 | 0.0 | 0.0 | 0.00 | 0.00 | 0.00 | 19 | 1010.2 |
| 20260507001529 | 84 | 209 | 0.0 | 0.0 | 0.00 | 0.00 | 0.00 | 19 | 1010.3 |
| 20260507001025 | 84 | 205 | 0.0 | 0.9 | 0.00 | 0.00 | 0.00 | 19 | 1010.3 |
| 20260507000519 | 84 | 196 | 0.0 | 0.9 | 0.00 | 0.00 | 0.00 | 19 | 1010.3 |
| 20260507000013 | 84 | 198 | 0.0 | 0.0 | 0.00 | 0.00 | 0.00 | 19 | 1010.3 |
| 20260506235510 | 84 | 202 | 0.0 | 0.9 | 0.00 | 0.00 | 0.00 | 19 | 1010.3 |
| 20260506235229 | 84 | 233 | 0.0 | 1.7 | 0.00 | 0.00 | 0.00 | 19 | 1010.3 |
| 20260506234511 | 84 | 244 | 0.0 | 1.7 | 0.00 | 0.00 | 0.00 | 19 | 1010.3 |
| 20260506234007 | 84 | 234 | 0.0 | 0.9 | 0.00 | 0.00 | 0.00 | 19 | 1010.3 |
| 20260506233507 | 84 | 267 | 0.0 | 0.9 | 0.00 | 0.00 | 0.00 | 19 | 1010.4 |
| 20260506233008 | 84 | 242 | 0.0 | 0.9 | 0.00 | 0.00 | 0.00 | 19 | 1010.6 |
| 20260506232507 | 84 | 249 | 0.0 | 0.9 | 0.00 | 0.00 | 0.00 | 19 | 1010.6 |
| 20260506232223 | 84 | 289 | 0.0 | 0.9 | 0.00 | 0.00 | 0.00 | 18 | 1010.6 |
| 20260506231503 | 84 | 261 | 0.0 | 1.7 | 0.00 | 0.00 | 0.00 | 19 | 1010.6 |
| 20260506231222 | 84 | 281 | 0.0 | 1.7 | 0.00 | 0.00 | 0.00 | 18 | 1010.7 |
| 20260506230501 | 84 | 142 | 0.0 | 0.9 | 0.00 | 0.00 | 0.00 | 19 | 1010.8 |
| 20260506230001 | 85 | 188 | 0.0 | 0.0 | 0.00 | 0.00 | 0.00 | 19 | 1010.8 |
| 20260506225502 | 84 | 197 | 0.0 | 0.9 | 0.00 | 0.00 | 0.00 | 19 | 1010.9 |
| 20260506225002 | 84 | 202 | 0.0 | 0.9 | 0.00 | 0.00 | 0.00 | 18 | 1010.9 |
| 20260506224501 | 84 | 233 | 0.0 | 1.7 | 0.00 | 0.00 | 0.00 | 19 | 1010.9 |
| 20260506224001 | 84 | 198 | 0.0 | 3.5 | 0.00 | 0.00 | 0.00 | 19 | 1011.0 |
| 20260506223501 | 84 | 212 | 0.0 | 3.5 | 0.00 | 0.00 | 0.00 | 19 | 1011.0 |
| 20260506223001 | 84 | 138 | 0.0 | 3.5 | 0.00 | 0.00 | 0.00 | 19 | 1011.1 |
| 20260506222656 | 84 | 210 | 0.0 | 0.9 | 0.00 | 0.00 | 0.00 | 19 | 1011.3 |
| 20260506222643 | 84 | 196 | 0.0 | 3.5 | 0.00 | 0.00 | 0.00 | 19 | 1011.2 |
| 20260506222424 | 83 | 172 | 0.0 | 0.9 | 0.00 | 0.00 | 0.00 | 19 | 1011.3 |
| 20260506221002 | 83 | 215 | 0.0 | 0.9 | 0.00 | 0.00 | 0.00 | 19 | 1011.4 |
| 20260506220501 | 83 | 210 | 0.0 | 5.2 | 0.00 | 0.00 | 0.00 | 19 | 1011.4 |
| 20260506220000 | 84 | 278 | 0.0 | 5.2 | 0.00 | 0.00 | 0.00 | 19 | 1011.5 |
| 20260506215724 | 83 | 288 | 0.0 | 0.9 | 0.00 | 0.00 | 0.00 | 19 | 1011.6 |
| 20260506215001 | 83 | 187 | 0.0 | 0.9 | 0.00 | 0.00 | 0.00 | 19 | 1011.6 |
| 20260506214501 | 83 | 202 | 0.0 | 8.7 | 0.00 | 0.00 | 0.00 | 19 | 1011.7 |
| 20260506214001 | 83 | 167 | 0.0 | 8.7 | 0.00 | 0.00 | 0.00 | 20 | 1011.8 |
| 20260506213726 | 82 | 217 | 0.0 | 0.9 | 0.00 | 0.00 | 0.00 | 20 | 1011.8 |
| 20260506213001 | 82 | 286 | 0.0 | 1.7 | 0.00 | 0.00 | 0.00 | 20 | 1012.0 |
| 20260506212501 | 82 | 244 | 0.0 | 1.7 | 0.00 | 0.00 | 0.00 | 20 | 1012.1 |
| 20260506212223 | 83 | 268 | 0.0 | 0.0 | 0.00 | 0.00 | 0.00 | 20 | 1012.1 |
| 20260506211948 | 82 | 236 | 0.0 | 1.7 | 0.00 | 0.00 | 0.00 | 20 | 1012.2 |
| 20260506211001 | 82 | 202 | 0.0 | 1.7 | 0.00 | 0.00 | 0.00 | 20 | 1012.3 |
| 20260506210726 | 82 | 155 | 0.0 | 3.5 | 0.00 | 0.00 | 0.00 | 20 | 1012.4 |
| 20260506210001 | 82 | 267 | 0.0 | 3.5 | 0.00 | 0.00 | 0.00 | 20 | 1012.5 |
| 20260506205455 | 82 | 212 | 0.0 | 2.6 | 0.00 | 0.00 | 0.00 | 21 | 1012.6 |
| 20260506205223 | 82 | 203 | 0.0 | 9.6 | 0.00 | 0.00 | 0.00 | 21 | 1012.7 |
| 20260506204717 | 81 | 159 | 0.0 | 9.6 | 0.00 | 0.00 | 0.00 | 21 | 1012.6 |
| 20260506204222 | 81 | 213 | 0.9 | 10.4 | 0.00 | 0.00 | 0.00 | 21 | 1012.8 |
| 20260506203453 | 81 | 168 | 0.0 | 10.4 | 0.00 | 0.00 | 0.00 | 21 | 1012.8 |
| 20260506202953 | 80 | 180 | 0.0 | 0.0 | 0.00 | 0.00 | 0.00 | 23 | 1012.9 |
| 20260506202453 | 79 | 109 | 0.0 | 0.9 | 0.00 | 0.00 | 0.00 | 21 | 1012.8 |
| 20260506201953 | 80 | 121 | 0.0 | 0.9 | 0.00 | 0.00 | 0.00 | 21 | 1012.9 |
| 20260506201451 | 81 | 201 | 0.0 | 0.9 | 0.00 | 0.00 | 0.00 | 21 | 1013.0 |
| 20260506200950 | 80 | 243 | 0.0 | 0.9 | 0.00 | 0.00 | 0.00 | 22 | 1013.2 |
| 20260506200450 | 80 | 302 | 0.0 | 7.0 | 0.00 | 0.00 | 0.00 | 23 | 1013.2 |
| 20260506195949 | 80 | 265 | 0.0 | 7.0 | 0.00 | 0.00 | 0.00 | 22 | 1013.3 |
| 20260506195449 | 80 | 233 | 0.0 | 0.0 | 0.00 | 0.00 | 0.00 | 22 | 1013.3 |
| 20260506195210 | 80 | 134 | 0.0 | 0.0 | 0.00 | 0.00 | 0.00 | 22 | 1013.3 |
| 20260506194445 | 79 | 175 | 0.0 | 7.8 | 0.00 | 0.00 | 0.00 | 22 | 1013.4 |
| 20260506193944 | 79 | 198 | 0.0 | 7.8 | 0.00 | 0.00 | 0.00 | 23 | 1013.4 |
| 20260506193442 | 79 | 328 | 0.0 | 0.9 | 0.00 | 0.00 | 0.00 | 22 | 1013.5 |
| 20260506192941 | 79 | 299 | 0.0 | 1.7 | 0.00 | 0.00 | 0.00 | 22 | 1013.6 |
| 20260506192442 | 79 | 213 | 0.0 | 1.7 | 0.00 | 0.00 | 0.00 | 23 | 1013.6 |
| 20260506191941 | 79 | 284 | 0.0 | 3.5 | 0.00 | 0.00 | 0.00 | 23 | 1013.5 |
| 20260506191439 | 78 | 290 | 0.0 | 3.5 | 0.00 | 0.00 | 0.00 | 22 | 1013.6 |
| 20260506190938 | 78 | 321 | 0.0 | 0.0 | 0.00 | 0.00 | 0.00 | 23 | 1013.7 |
| 20260506190437 | 78 | 147 | 0.0 | 0.0 | 0.00 | 0.00 | 0.00 | 23 | 1013.7 |
| 20260506185936 | 78 | 215 | 0.0 | 0.0 | 0.00 | 0.00 | 0.00 | 23 | 1013.8 |
| 20260506185706 | 78 | 349 | 0.0 | 2.6 | 0.00 | 0.00 | 0.00 | 23 | 1013.8 |
| 20260506184936 | 79 | 261 | 0.0 | 2.6 | 0.00 | 0.00 | 0.00 | 23 | 1013.9 |
| 20260506184436 | 79 | 196 | 0.0 | 1.7 | 0.00 | 0.00 | 0.00 | 23 | 1013.9 |
| 20260506183937 | 79 | 190 | 0.0 | 3.5 | 0.00 | 0.00 | 0.00 | 24 | 1014.0 |
| 20260506183436 | 78 | 184 | 0.0 | 3.5 | 0.00 | 0.00 | 0.00 | 24 | 1014.1 |
| 20260506183153 | 77 | 203 | 0.0 | 1.7 | 0.00 | 0.00 | 0.00 | 24 | 1014.1 |
| 20260506182433 | 77 | 191 | 0.0 | 1.7 | 0.00 | 0.00 | 0.00 | 26 | 1014.2 |
| 20260506182154 | 77 | 155 | 0.0 | 0.9 | 0.00 | 0.00 | 0.00 | 25 | 1014.3 |
| 20260506181433 | 77 | 250 | 0.0 | 0.9 | 0.00 | 0.00 | 0.00 | 26 | 1014.3 |
| 20260506180932 | 76 | 229 | 0.0 | 0.9 | 0.00 | 0.00 | 0.00 | 26 | 1014.4 |
| 20260506180432 | 77 | 253 | 0.0 | 2.6 | 0.00 | 0.00 | 0.00 | 26 | 1014.4 |
| 20260506175932 | 76 | 204 | 0.0 | 6.1 | 0.00 | 0.00 | 0.00 | 27 | 1014.4 |
| 20260506175434 | 76 | 165 | 0.0 | 6.1 | 0.00 | 0.00 | 0.00 | 27 | 1014.5 |
| 20260506175151 | 76 | 254 | 0.0 | 0.9 | 0.00 | 0.00 | 0.00 | 27 | 1014.5 |
| 20260506174431 | 76 | 267 | 0.0 | 0.0 | 0.00 | 0.00 | 0.00 | 28 | 1014.5 |
| 20260506173930 | 75 | 202 | 0.0 | 0.0 | 0.00 | 0.00 | 0.00 | 28 | 1014.6 |
| 20260506173431 | 75 | 265 | 0.0 | 0.9 | 0.00 | 0.00 | 0.00 | 28 | 1014.6 |
| 20260506172931 | 75 | 237 | 0.0 | 0.9 | 0.00 | 0.00 | 0.00 | 28 | 1014.6 |
| 20260506172430 | 75 | 213 | 0.0 | 0.0 | 0.00 | 0.00 | 0.00 | 29 | 1014.6 |
| 20260506171931 | 74 | 285 | 0.0 | 0.0 | 0.00 | 0.00 | 0.00 | 29 | 1014.6 |
| 20260506171430 | 74 | 242 | 0.0 | 0.9 | 0.00 | 0.00 | 0.00 | 29 | 1014.6 |
| 20260506170930 | 74 | 229 | 0.0 | 0.9 | 0.00 | 0.00 | 0.00 | 29 | 1014.5 |
| 20260506170431 | 73 | 254 | 0.0 | 0.0 | 0.00 | 0.00 | 0.00 | 29 | 1014.6 |
| 20260506170150 | 73 | 249 | 0.0 | 0.9 | 0.00 | 0.00 | 0.00 | 29 | 1014.5 |
| 20260506165429 | 73 | 229 | 0.0 | 0.9 | 0.00 | 0.00 | 0.00 | 29 | 1014.5 |
| 20260506164931 | 73 | 215 | 0.0 | 0.0 | 0.00 | 0.00 | 0.00 | 29 | 1014.5 |
| 20260506164430 | 73 | 221 | 0.0 | 0.0 | 0.00 | 0.00 | 0.00 | 31 | 1014.4 |
| 20260506163929 | 73 | 201 | 0.0 | 0.9 | 0.00 | 0.00 | 0.00 | 30 | 1014.4 |
| 20260506163656 | 73 | 192 | 0.0 | 0.9 | 0.00 | 0.00 | 0.00 | 31 | 1014.4 |
| 20260506162929 | 73 | 205 | 0.0 | 0.0 | 0.00 | 0.00 | 0.00 | 31 | 1014.4 |
| 20260506162430 | 72 | 180 | 0.0 | 0.0 | 0.00 | 0.00 | 0.00 | 32 | 1014.4 |
| 20260506162352 | 72 | 186 | 0.0 | 0.0 | 0.00 | 0.00 | 0.00 | 32 | 1014.3 |
| 20260506162346 | 71 | 217 | 0.0 | 0.0 | 0.00 | 0.00 | 0.00 | 32 | 1014.3 |